Location: Derby
(52.9213°N, 1.4761°W)
Time: 18:19:54
(UTC+01:00)

Tiros 1 - Pass Details

Date: 21 May 2025
Orbit: 620 x 651 km, 48.4° (Epoch: 13 June)

Event Time Altitude Azimuth Distance (km) Brightness Sun altitude
Rises 18:56:14 0° 234° (SW) 2,890 11.2 17.0°
Reaches altitude 10° 18:58:40 10° 226° (SW) 1,988 10.2 16.7°
Maximum altitude 19:02:49 35° 161° (SSE) 1,014 8.1 16.1°
Drops below altitude 10° 19:07:00 10° 95° (E) 2,008 9.1 15.5°
Sets 19:09:28 0° 87° (E) 2,923 9.9 15.1°
